Location: Cahas Mountain Overlook
(37.0833°N, 80.1000°W)
Time: 10:26:52
(UTC-04:00)

Vanguard 1 Rocket - Pass Details

Date: 28 January 2022
Orbit: 651 x 4224 km, 34.3° (Epoch: 21 May)

Event Time Altitude Azimuth Distance (km) Brightness Sun altitude
Rises 18:44:44 0° 284° (WNW) 6,519 13.0 -12.9°
Reaches altitude 10° 18:50:58 10° 272° (W) 4,782 12.4 -14.1°
Maximum altitude 18:59:15 22° 229° (SW) 2,919 10.7 -15.8°
Drops below altitude 10° 19:04:47 10° 182° (S) 3,024 10.2 -16.8°
Sets 19:07:39 0° 165° (SSE) 3,639 10.4 -17.4°
